Regional Weather Roundup
Issued by NWS Wilmington, NC

Home | Current Version | Previous Version | Text Only | Print | Product List | Glossary On
Versions: 1 2 3 4 5 6 7 8 9 10 11 12 13 14 15 16 17 18 19 20 21 22 23 24 25 26 27 28 29 30 31 32 33 34 35 36 37 38 39 40 41 42 43 44 45 46 47 48 49 50
000
ASUS42 KILM 310910
RWRILM
RWRILM
REGIONAL HOURLY WEATHER ROUNDUP
NATIONAL WEATHER SERVICE WILMINGTON NC
400 AM EST SAT JAN 31 2015

NOTE: "FAIR" INDICATES FEW OR NO CLOUDS BELOW 12,000 FEET WITH NO
SIGNIFICANT WEATHER AND/OR OBSTRUCTIONS TO VISIBILITY.

...............WFO WILMINGTON COUNTY WARNING AREA...............

......COASTAL NC AND SC COUNTIES......

CITY           SKY/WX    TMP DP  RH WIND       PRES   REMARKS
WILMINGTON     CLEAR     30  11  45 N10       30.31R WCI  21
SOUTHPORT      CLEAR     31  13  47 N6        30.31S WCI  25
N MYRTLE BEACH CLEAR     32  12  43 N7        30.32R WCI  26
MYRTLE BEACH   CLEAR     32  12  43 N9        30.34R WCI  24

......INLAND NC AND SC COUNTIES.......

CITY           SKY/WX    TMP DP  RH WIND       PRES   REMARKS
LUMBERTON      CLEAR     30  11  45 N7        30.32S WCI  23
ELIZABETHTOWN  CLEAR     28  13  52 CALM      30.32S
WHITEVILLE     CLEAR     31  11  43 CALM      30.32R
FLORENCE       CLEAR     29  13  51 N6        30.33S WCI  23
DARLINGTON     CLEAR     28  12  50 N3        30.34F

....................REST OF NORTH CAROLINA......................

.........EASTERN NC.........

CITY           SKY/WX    TMP DP  RH WIND       PRES   REMARKS
CAPE HATTERAS  CLEAR     31  13  47 NW12G23   30.24R WCI  22
JACKSONVILLE   FAIR      28  10  47 NW6       30.32R WCI  22
MOREHEAD CITY  CLEAR     31  16  54 N16       30.29R WCI  20
KENANSVILLE    CLEAR     29  11  47 NW6       30.33S WCI  23
NEW BERN       CLEAR     30  12  47 NW8       30.31R WCI  22
ELIZABETH CITY FAIR      26  10  50 NW15G23   30.27R WCI  14

.........CENTRAL NC.........

CITY           SKY/WX    TMP DP  RH WIND       PRES   REMARKS
RALEIGH DURHAM CLEAR     27   8  44 CALM      30.32S
ROCKY MOUNT    CLEAR     28  10  46 NW7       30.32R WCI  21
ROANOKE RAPIDS NOT AVBL
FAYETTEVILLE   CLEAR     29   9  43 N8        30.32F WCI  21
HOFFMAN        CLEAR     25  12  56 N3        30.34F

.........WESTERN NC.........

CITY           SKY/WX    TMP DP  RH WIND       PRES   REMARKS
CHARLOTTE      CLEAR     26  10  50 CALM      30.31F
GREENSBORO     CLEAR     24   8  50 CALM      30.29S
HICKORY        NOT AVBL
BOONE          NOT AVBL
ASHEVILLE      NOT AVBL

.....................REST OF SOUTH CAROLINA.....................

.........EASTERN SC.........

CITY           SKY/WX    TMP DP  RH WIND       PRES   REMARKS
CHARLESTON     CLEAR     33  18  53 NE6       30.33R WCI  28
BEAUFORT MCAS  CLEAR     33  23  66 N7        30.33S WCI  27
HILTON HEAD    CLEAR     41  28  60 N8        30.34R

.........CENTRAL SC.........

CITY           SKY/WX    TMP DP  RH WIND       PRES   REMARKS
COLUMBIA       CLEAR     26  20  77 W5        30.34S WCI  20
ORANGEBURG     CLEAR     29  23  78 CALM      30.34R
SUMTER SHAW    CLEAR     25  14  63 NE8       30.32S WCI  17

.........WESTERN SC.........

CITY           SKY/WX    TMP DP  RH WIND       PRES   REMARKS
GREENVILLE     NOT AVBL
ROCK HILL      CLEAR     24  15  68 CALM      30.32S
ANDERSON       CLEAR     25  17  72 CALM      30.32S
CLEMSON        NOT AVBL
GREENWOOD      CLEAR     27  14  58 CALM      30.34S


...................COASTAL AND OFFSHORE REPORTS..................

................LOCAL PIERS AND NC RESERVE................


STATION/POSITION TIME  SKY/WX   TEMP    WIND        PRES    VSBY
                                AIR SEA DIR/SP/G
                 (UTC)          (F)     (DEG/KT/KT) (MB)    (MI)
JOHNY MRCER PIER 0900            32 53  350/  9/ 13 1025.3S
NC RESRV MASNBRO 0800            32     340/  2     1026.0S
OCEAN CREST PIER NOT AVBL
SPRINGMAID  PIER 0900            34 49  330/  7/  9 1026.7R


................COASTAL AND OFFSHORE BUOYS................


STATION/POSITION TIME  SKY/WX   TEMP    WIND        PRES    VSBY
                                AIR SEA DIR/SP/G
                 (UTC)          (F)     (DEG/KT/KT) (MB)    (MI)
DIMNDSHOAL 41025 0900            36 64  330/ 27/ 37 1022.2R
WVE H/P(F/S)=  8/ 9 WND WVE H/P(F/S)=  7/ 6 SWL H/P/D(F/S/D)=  3/ 20/ 9

CAPE LOOKOUT     0800            33     340/ 19/ 22 1024.6R
ONSLOW BAY 41036 NOT AVBL
5 WRITEBCH 41038 0800            37 51  350/ 16/ 17 1025.6R
MASONBORO  41110 0900               51                N/A
WVE H/P(F/S)=  3/ 4 WND WVE H/P(F/S)=  3/ 4

WILM HARBR 41108 0900               53                N/A
WVE H/P(F/S)=  3/ 4 WND WVE H/P(F/S)=  3/ 4

27WRITEBCH 41037 NOT AVBL
FRYING PAN 41013 0900            40 62  360/ 23/ 27 1025.5R
WVE H/P(F/S)=  8/ 6 WND WVE H/P(F/S)=  8/ 6

SUNST NRSH 41024 0800            35     360/ 12/ 16   N/A
CAPRS NRSH 41029 0800            41      20/ 19/ 21   N/A
EDISTO     41004 0900            48 68  360/ 21/ 25 1025.0R
WVE H/P(F/S)=  7/ 6 WND WVE H/P(F/S)=  7/ 6 SWL H/P/D(F/S/D)=  2/10



..........OFFSHORE BUOYS BEYOND 100 NM OFFSHORE...........
.....IN A TRIANGLE---HAT TO BERMUDA TO BAHAMAS TO HAT.....


STATION/POSITION TIME  SKY/WX   TEMP    WIND        PRES    VSBY
                                AIR SEA DIR/SP/G
                 (UTC)          (F)     (DEG/KT/KT) (MB)    (MI)
150E HAT   41001 NOT AVBL
W BERMUDA  41048 0835            57 71  310/ 29/ 35 1012.8R
WVE H/P(F/S)= 15/10 WND WVE H/P(F/S)=  8/ 7 SWL H/P/D(F/S/D)= 13/310/10

ATLANTIC S 41049 0833            71 74  260/ 14/ 17 1014.4F
WVE H/P(F/S)=  6/ 9 WND WVE H/P(F/S)=  3/ 5 SWL H/P/D(F/S/D)=  5/340/ 9

E BAHAMAS  41046 0801            72 78  340/ 14/ 16 1015.9F
WVE H/P(F/S)=  6/ 9 WND WVE H/P(F/S)=  2/ 6 SWL H/P/D(F/S/D)=  5/ 10/ 9

NE BAHAMAS 41047 0808            68 75  330/ 21/ 27 1016.2R
WVE H/P(F/S)=  7/ 6 WND WVE H/P(F/S)=  7/ 6 SWL H/P/D(F/S/D)=  2/ 30/ 9

120E CANVRL41010 0900            63 73  360/ 19/ 25 1021.9F
WVE H/P(F/S)=  6/ 7 WND WVE H/P(F/S)=  7/ 7 SWL H/P/D(F/S/D)=  2/ 60/11


END


USA.gov is the U.S. government's official web portal to all federal, state and local government web resources and services.